Flag for Netherlands Weather past 2 weeks in Enschede, Netherlands

37 °F

Passing clouds.

Feels Like: 37 °F
Forecast: 36 / 42 °F
Wind: 2 mph from Northwest

Location: Deelen

Current Time: Nov 26, 2015 at 2:05:57 AM

Latest Report: Nov 26, 2015 at 1:25 AM

Visibility: N/A

Pressure: 29.83 "Hg

Humidity: 93%

Dew point: 36 °F

Location of EnschedeLocation

Historic Weather in Enschede — Graph


Enschede temperature yesterday

Maximum temperature yesterday: 45 °F (at 11:55 AM)
Minimum temperature yesterday: 34 °F (at 11:25 PM)
Average temperature yesterday: 40 °F

Past Weeks' High & Low Weather Summary

High59 °F (Nov 17, 8:25 PM)100% (Nov 11, 2:25 AM)30.27 "Hg (Nov 11, 2:25 AM)
Low27 °F (Nov 23, 8:25 AM)55% (Nov 13, 1:55 PM)29.33 "Hg (Nov 21, 6:25 AM)
Average47 °F88%29.87 "Hg
* Reported Nov 11 12:25 AM — Nov 26 12:55 AM, Enschede, Weather by CustomWeather, © 2015

Note: Actual official high and low records may vary slightly from our data, if they occured in-between our weather recording intervals... More about our weather records


Enschede weather history for previous 24 hours

Time TempWeatherWind HumidityBarometerVisibility
12:55 AM
Thu, Nov 26
36 °FPartly cloudy.3 mph100%29.83 "HgN/A
12:25 AM36 °FPassing clouds.3 mph100%29.83 "HgN/A
11:55 PM
Wed, Nov 25
36 °FFog.3 mph100%29.80 "Hg2 mi
11:25 PM34 °FPassing clouds.3 mph100%29.80 "HgN/A
10:55 PM36 °FPassing clouds.2 mph100%29.80 "HgN/A
10:25 PM36 °FFog.1 mph100%29.80 "Hg4 mi
9:55 PM37 °FPassing clouds.5 mph100%29.77 "HgN/A
9:25 PM37 °FPassing clouds.6 mph100%29.77 "HgN/A
8:55 PM37 °FLight rain. Partly cloudy.5 mph100%29.77 "HgN/A
8:25 PM39 °FPassing clouds.6 mph93%29.74 "HgN/A
7:55 PM37 °FLight rain. Partly cloudy.3 mph100%29.74 "HgN/A
7:25 PM36 °FPartly cloudy.2 mph100%29.74 "HgN/A
6:55 PM37 °FPassing clouds.6 mph100%29.71 "HgN/A
6:25 PM37 °FLight rain. Passing clouds.2 mph100%29.71 "HgN/A
5:55 PM37 °FPassing clouds.3 mph100%29.71 "HgN/A
5:25 PM39 °FPassing clouds.5 mph93%29.68 "HgN/A
4:55 PM39 °FPartly cloudy.5 mph100%29.68 "HgN/A
4:25 PM41 °FCloudy.6 mph93%29.68 "HgN/A
3:55 PM43 °FDrizzle. Broken clouds.7 mph93%29.68 "HgN/A
3:25 PM43 °FBroken clouds.6 mph93%29.68 "HgN/A
2:55 PM43 °FPartly sunny.6 mph93%29.65 "HgN/A
2:25 PM43 °FQuite cool.6 mph93%29.65 "HgN/A
1:55 PM45 °FPassing clouds.7 mph87%29.65 "HgN/A
1:25 PM45 °FPassing clouds.10 mph93%29.65 "HgN/A
12:55 PM43 °FPartly sunny.7 mph93%29.65 "HgN/A
12:25 PM45 °FLight rain. Broken clouds.8 mph93%29.65 "HgN/A
11:55 AM45 °FBroken clouds.9 mph93%29.65 "HgN/A
11:25 AM43 °FPartly sunny.8 mph100%29.65 "HgN/A
10:55 AM43 °FOvercast.8 mph93%29.65 "HgN/A
10:25 AM41 °FDrizzle. Broken clouds.7 mph100%29.65 "HgN/A
9:55 AM41 °FSprinkles. Broken clouds.3 mph100%29.65 "Hg4 mi
9:25 AM41 °FBroken clouds.6 mph100%29.65 "HgN/A
8:55 AM41 °FFog.3 mph100%29.65 "Hg6 mi
7:55 AM41 °FLight rain. Partly cloudy.8 mph100%29.65 "Hg4 mi
6:55 AM41 °FFog.6 mph100%29.62 "Hg4 mi
6:25 AM41 °FPartly cloudy.8 mph100%29.62 "Hg2 mi
5:55 AM41 °FFog.8 mph100%29.62 "Hg2 mi
4:55 AM43 °FFog.7 mph100%29.65 "Hg2 mi
4:25 AM43 °FSprinkles. Overcast.7 mph100%29.65 "Hg1 mi
3:55 AM43 °FPassing clouds.6 mph100%29.65 "Hg1 mi
3:25 AM43 °FFog.10 mph93%29.65 "Hg2 mi
2:55 AM41 °FFog.9 mph100%29.65 "Hg2 mi
2:25 AM41 °FFog.10 mph100%29.65 "Hg2 mi
Weather by CustomWeather, © 2015

See weather overviewHow to use our weather pages